ORBCOMM FM11 [+]

Last updated on July 6, 2021, 3:36 p.m. UTC

1 25114U 97084C   21186.71497019  .00000093  00000-0  75421-4 0  9992
2 25114  45.0169  44.7697 0006064 145.7087 214.4154 14.39203004233370
UTC
Height (km)
Latitude
Longitude
Inclination
Orbital Period
UTC large
Height (km)
Speed (km/s)
/
Latitude / Longitude
Inclination (degrees)
Orbital Period (minutes)
Azimuth
Elevation
Range (km)
Doppler Factor
iOS Compass Heading
iOS Angle